�������l�o���
Date,Time,MP-1(��Sv/h),MP-2(��Sv/h),MP-3(��Sv/h),MP-4(��Sv/h),MP-5(��Sv/h),MP-6(��Sv/h),MP-7(��Sv/h),MP-8(��Sv/h),����,����(m/s),���J
2017/11/25,00:00,0.898,1.453,0.925,1.737,1.184,0.495,0.890,0.845,���쐼,9.6,��
2017/11/25,00:10,0.898,1.449,0.927,1.734,1.184,0.494,0.890,0.844,��,10.0,��
2017/11/25,00:20,0.897,1.451,0.926,1.732,1.181,0.495,0.889,0.845,��,9.9,��
2017/11/25,00:30,0.897,1.451,0.926,1.735,1.183,0.493,0.888,0.844,���쐼,8.1,��
2017/11/25,00:40,0.897,1.452,0.925,1.736,1.185,0.495,0.888,0.848,���쐼,9.1,��
2017/11/25,00:50,0.897,1.451,0.925,1.737,1.184,0.494,0.887,0.844,���쐼,9.3,��
2017/11/25,01:00,0.898,1.450,0.927,1.737,1.185,0.495,0.887,0.845,���쐼,9.5,��
2017/11/25,01:10,0.898,1.453,0.926,1.735,1.186,0.495,0.888,0.846,���쐼,9.1,��
2017/11/25,01:20,0.897,1.447,0.927,1.734,1.185,0.495,0.888,0.844,���쐼,8.9,��
2017/11/25,01:30,0.898,1.451,0.926,1.738,1.185,0.496,0.889,0.845,���쐼,9.0,��
2017/11/25,01:40,0.897,1.452,0.927,1.736,1.186,0.496,0.888,0.844,���쐼,10.7,��
2017/11/25,01:50,0.898,1.452,0.927,1.739,1.187,0.494,0.888,0.845,���쐼,9.1,��
2017/11/25,02:00,0.898,1.453,0.925,1.738,1.187,0.497,0.888,0.845,���쐼,8.6,��
2017/11/25,02:10,0.899,1.455,0.926,1.739,1.186,0.495,0.888,0.846,���쐼,8.5,��
2017/11/25,02:20,0.896,1.453,0.926,1.737,1.187,0.495,0.889,0.845,���쐼,8.3,��
2017/11/25,02:30,0.898,1.450,0.925,1.738,1.184,0.496,0.888,0.844,���쐼,8.0,��
2017/11/25,02:40,0.899,1.452,0.926,1.735,1.186,0.495,0.889,0.845,���쐼,6.8,��
2017/11/25,02:50,0.897,1.453,0.927,1.737,1.187,0.497,0.889,0.845,���쐼,8.8,��
2017/11/25,03:00,0.898,1.453,0.926,1.739,1.185,0.497,0.886,0.844,���쐼,8.6,��
2017/11/25,03:10,0.898,1.451,0.926,1.736,1.185,0.497,0.889,0.844,��,8.3,��
2017/11/25,03:20,0.896,1.453,0.925,1.734,1.185,0.495,0.887,0.844,��,6.7,��
2017/11/25,03:30,0.898,1.452,0.925,1.735,1.182,0.498,0.887,0.844,��,4.7,��
2017/11/25,03:40,0.897,1.454,0.927,1.736,1.185,0.496,0.889,0.845,��,4.0,��
2017/11/25,03:50,0.900,1.452,0.924,1.735,1.182,0.496,0.887,0.844,��,4.4,��
2017/11/25,04:00,0.898,1.452,0.924,1.738,1.183,0.495,0.887,0.843,��,4.0,��
2017/11/25,04:10,0.898,1.452,0.926,1.734,1.184,0.496,0.888,0.846,���쐼,2.3,��
2017/11/25,04:20,0.895,1.450,0.925,1.736,1.183,0.495,0.887,0.845,��,4.1,��
2017/11/25,04:30,0.898,1.455,0.927,1.737,1.186,0.494,0.887,0.844,��,4.7,��
2017/11/25,04:40,0.898,1.450,0.923,1.737,1.185,0.495,0.887,0.843,���쐼,4.7,��
2017/11/25,04:50,0.897,1.451,0.928,1.736,1.184,0.495,0.886,0.844,���쐼,6.9,��
2017/11/25,05:00,0.896,1.453,0.927,1.736,1.185,0.497,0.887,0.842,���쐼,6.0,��
2017/11/25,05:10,0.897,1.450,0.924,1.738,1.185,0.495,0.887,0.844,���쐼,6.5,��
2017/11/25,05:20,0.898,1.452,0.926,1.736,1.186,0.494,0.887,0.844,���쐼,5.4,��
2017/11/25,05:30,0.894,1.452,0.926,1.734,1.182,0.494,0.887,0.845,���쐼,7.5,��
2017/11/25,05:40,0.899,1.449,0.927,1.737,1.184,0.497,0.888,0.844,��,8.9,��
2017/11/25,05:50,0.898,1.452,0.926,1.737,1.184,0.495,0.888,0.842,��,9.1,��
2017/11/25,06:00,0.896,1.449,0.927,1.738,1.186,0.494,0.888,0.842,��,7.5,��
2017/11/25,06:10,0.898,1.452,0.927,1.736,1.187,0.494,0.889,0.842,��,8.1,��
2017/11/25,06:20,0.898,1.454,0.926,1.736,1.185,0.494,0.887,0.842,���쐼,8.4,��
2017/11/25,06:30,0.898,1.453,0.925,1.737,1.185,0.495,0.887,0.844,���쐼,8.3,��
2017/11/25,06:40,0.895,1.450,0.924,1.735,1.185,0.496,0.888,0.844,���쐼,9.9,��
2017/11/25,06:50,0.896,1.448,0.927,1.736,1.185,0.495,0.886,0.845,���쐼,9.3,��
2017/11/25,07:00,0.900,1.450,0.927,1.738,1.183,0.496,0.889,0.843,���쐼,9.4,��
2017/11/25,07:10,0.895,1.449,0.925,1.738,1.185,0.495,0.889,0.843,��,9.2,��
2017/11/25,07:20,0.896,1.453,0.926,1.735,1.186,0.495,0.889,0.843,��,9.2,��
2017/11/25,07:30,0.897,1.452,0.926,1.737,1.183,0.495,0.890,0.844,��,8.3,��
2017/11/25,07:40,0.896,1.451,0.926,1.739,1.184,0.495,0.888,0.844,��,7.4,��
2017/11/25,07:50,0.897,1.450,0.928,1.738,1.188,0.495,0.888,0.847,��,8.2,��
2017/11/25,08:00,0.897,1.454,0.928,1.739,1.188,0.494,0.887,0.845,���쐼,7.2,��
2017/11/25,08:10,0.900,1.453,0.927,1.739,1.185,0.494,0.888,0.845,���쐼,7.8,��
2017/11/25,08:20,0.898,1.455,0.928,1.741,1.185,0.496,0.888,0.844,���쐼,6.1,��
2017/11/25,08:30,0.900,1.455,0.927,1.739,1.185,0.495,0.890,0.846,��,7.4,��
2017/11/25,08:40,0.899,1.453,0.927,1.740,1.186,0.497,0.887,0.845,���쐼,7.1,��
2017/11/25,08:50,0.901,1.454,0.928,1.741,1.186,0.496,0.888,0.845,��,4.2,��
2017/11/25,09:00,0.898,1.455,0.930,1.739,1.185,0.496,0.888,0.847,��,5.5,��
2017/11/25,09:10,0.899,1.452,0.928,1.739,1.187,0.496,0.886,0.844,���k��,8.4,��
2017/11/25,09:20,0.897,1.453,0.927,1.742,1.186,0.498,0.885,0.845,���k��,7.7,��
2017/11/25,09:30,0.901,1.452,0.928,1.737,1.186,0.496,0.886,0.845,��,7.4,��
2017/11/25,09:40,0.899,1.449,0.926,1.739,1.186,0.498,0.883,0.846,���k��,6.2,��
2017/11/25,09:50,0.898,1.449,0.929,1.740,1.187,0.496,0.884,0.845,��,5.9,��
2017/11/25,10:00,0.902,1.451,0.929,1.739,1.188,0.496,0.884,0.845,��,4.5,��
2017/11/25,10:10,0.901,1.449,0.928,1.740,1.187,0.497,0.884,0.845,���k��,3.9,��
2017/11/25,10:20,0.901,1.451,0.929,1.743,1.189,0.495,0.885,0.846,��,3.6,��
2017/11/25,10:30,0.900,1.455,0.928,1.744,1.190,0.496,0.885,0.845,�k��,6.1,��
2017/11/25,10:40,0.901,1.455,0.930,1.743,1.188,0.494,0.884,0.846,�k��,7.3,��
2017/11/25,10:50,0.900,1.452,0.931,1.743,1.191,0.497,0.886,0.843,���k��,6.6,��
2017/11/25,11:00,0.900,1.454,0.928,1.742,1.189,0.496,0.886,0.845,���k��,4.8,��
2017/11/25,11:10,0.901,1.452,0.929,1.745,1.188,0.495,0.885,0.846,��,5.2,��
2017/11/25,11:20,0.901,1.453,0.929,1.744,1.187,0.495,0.885,0.846,���k��,3.0,��
2017/11/25,11:30,0.901,1.451,0.930,1.744,1.188,0.496,0.884,0.846,��,5.0,��
2017/11/25,11:40,0.900,1.451,0.931,1.743,1.188,0.495,0.885,0.844,��,5.5,��
2017/11/25,11:50,0.901,1.452,0.929,1.746,1.187,0.496,0.885,0.848,���쐼,4.5,��
2017/11/25,12:00,0.904,1.452,0.929,1.743,1.189,0.496,0.885,0.845,��,4.9,��
2017/11/25,12:10,0.902,1.455,0.930,1.745,1.186,0.494,0.885,0.845,��,4.4,��
2017/11/25,12:20,0.901,1.455,0.930,1.744,1.187,0.495,0.885,0.845,��,4.1,��
2017/11/25,12:30,0.903,1.454,0.929,1.742,1.185,0.496,0.886,0.846,���k��,5.4,��
2017/11/25,12:40,0.900,1.457,0.929,1.742,1.190,0.497,0.884,0.846,���k��,6.1,��
2017/11/25,12:50,0.901,1.450,0.930,1.744,1.187,0.497,0.886,0.846,���k��,6.8,��
2017/11/25,13:00,0.903,1.452,0.933,1.746,1.190,0.496,0.885,0.846,���k��,5.6,��
2017/11/25,13:10,0.904,1.449,0.931,1.745,1.189,0.495,0.888,0.847,��,4.3,��
2017/11/25,13:20,0.901,1.453,0.930,1.744,1.191,0.495,0.887,0.844,���k��,3.7,��
2017/11/25,13:30,0.900,1.455,0.932,1.744,1.191,0.497,0.889,0.845,��,5.1,��
2017/11/25,13:40,0.903,1.453,0.931,1.743,1.195,0.498,0.890,0.846,��,5.4,��
2017/11/25,13:50,0.902,1.452,0.931,1.745,1.191,0.496,0.887,0.847,��,6.1,��
2017/11/25,14:00,0.905,1.451,0.930,1.747,1.192,0.496,0.888,0.848,��,6.6,��
2017/11/25,14:10,0.901,1.454,0.932,1.746,1.192,0.495,0.891,0.846,���k��,8.3,��
2017/11/25,14:20,0.902,1.455,0.931,1.747,1.191,0.496,0.889,0.846,���k��,7.7,��
2017/11/25,14:30,0.900,1.452,0.931,1.746,1.192,0.494,0.889,0.847,��,5.5,��
2017/11/25,14:40,0.903,1.454,0.931,1.748,1.191,0.497,0.888,0.847,��,8.4,��
2017/11/25,14:50,0.902,1.454,0.930,1.745,1.190,0.494,0.888,0.844,��,7.8,��
2017/11/25,15:00,0.904,1.457,0.932,1.746,1.192,0.496,0.890,0.846,��,7.0,��
2017/11/25,15:10,0.903,1.457,0.929,1.745,1.191,0.496,0.887,0.847,��,7.8,��
2017/11/25,15:20,0.902,1.458,0.931,1.746,1.192,0.494,0.889,0.846,��,7.3,��
2017/11/25,15:30,0.902,1.458,0.929,1.747,1.191,0.495,0.889,0.845,��,6.9,��
2017/11/25,15:40,0.902,1.458,0.931,1.746,1.188,0.495,0.890,0.846,���k��,6.6,��
2017/11/25,15:50,0.901,1.460,0.930,1.743,1.188,0.495,0.890,0.843,��,8.4,��
2017/11/25,16:00,0.903,1.457,0.930,1.746,1.192,0.497,0.890,0.844,��,8.4,��
2017/11/25,16:10,0.903,1.456,0.928,1.746,1.193,0.494,0.890,0.845,���k��,8.3,��
2017/11/25,16:20,0.901,1.461,0.932,1.744,1.192,0.495,0.889,0.846,���k��,9.0,��
2017/11/25,16:30,0.903,1.458,0.931,1.745,1.194,0.495,0.889,0.847,���k��,9.0,��
2017/11/25,16:40,0.899,1.462,0.930,1.746,1.191,0.494,0.887,0.844,�k��,6.0,��
2017/11/25,16:50,0.902,1.460,0.930,1.744,1.191,0.494,0.888,0.844,�k�k��,6.8,��
2017/11/25,17:00,0.901,1.461,0.928,1.746,1.190,0.493,0.888,0.845,�k�k��,6.7,��
2017/11/25,17:10,0.901,1.461,0.931,1.746,1.191,0.494,0.888,0.846,�k,4.0,��
2017/11/25,17:20,0.901,1.461,0.930,1.744,1.190,0.495,0.889,0.844,�k,2.6,��
2017/11/25,17:30,0.900,1.459,0.928,1.744,1.192,0.495,0.886,0.843,�k,3.4,��
2017/11/25,17:40,0.901,1.462,0.928,1.745,1.191,0.495,0.887,0.843,�k,4.8,��
2017/11/25,17:50,0.902,1.462,0.929,1.744,1.192,0.493,0.888,0.845,�k,4.9,��
2017/11/25,18:00,0.900,1.460,0.930,1.742,1.193,0.494,0.887,0.845,�k�k��,4.8,��
2017/11/25,18:10,0.900,1.461,0.927,1.747,1.190,0.491,0.890,0.846,�k�k��,5.8,��
2017/11/25,18:20,0.900,1.459,0.927,1.745,1.192,0.492,0.887,0.844,�k��,4.9,��
2017/11/25,18:30,0.898,1.458,0.929,1.744,1.190,0.494,0.888,0.845,�k��,4.7,��
2017/11/25,18:40,0.901,1.461,0.930,1.743,1.191,0.493,0.888,0.845,�k��,4.8,��
2017/11/25,18:50,0.900,1.459,0.929,1.746,1.192,0.494,0.888,0.844,�k��,4.0,��
2017/11/25,19:00,0.902,1.460,0.930,1.743,1.189,0.493,0.889,0.843,�k��,4.2,��
2017/11/25,19:10,0.900,1.459,0.927,1.742,1.190,0.496,0.887,0.843,�k��,4.8,��
2017/11/25,19:20,0.898,1.458,0.928,1.744,1.190,0.494,0.887,0.844,�k��,5.6,��
2017/11/25,19:30,0.897,1.460,0.928,1.745,1.192,0.493,0.887,0.844,�k��,6.5,��
2017/11/25,19:40,0.899,1.456,0.928,1.743,1.193,0.492,0.888,0.843,�k��,5.1,��
2017/11/25,19:50,0.898,1.457,0.925,1.741,1.190,0.493,0.887,0.844,�k,2.6,��
2017/11/25,20:00,0.897,1.459,0.927,1.744,1.190,0.493,0.887,0.845,�k�k��,2.8,��
2017/11/25,20:10,0.899,1.460,0.927,1.744,1.189,0.493,0.887,0.843,�k,3.6,��
2017/11/25,20:20,0.898,1.461,0.928,1.743,1.192,0.492,0.888,0.844,�k�k��,3.6,��
2017/11/25,20:30,0.899,1.460,0.926,1.744,1.191,0.494,0.885,0.845,�k�k��,2.9,��
2017/11/25,20:40,0.898,1.460,0.927,1.744,1.192,0.492,0.886,0.843,�k�k��,2.0,��
2017/11/25,20:50,0.901,1.457,0.924,1.741,1.187,0.495,0.887,0.845,���k��,1.5,��
2017/11/25,21:00,0.900,1.457,0.928,1.746,1.190,0.494,0.888,0.845,�k,3.0,��
2017/11/25,21:10,0.897,1.458,0.925,1.741,1.191,0.491,0.886,0.843,�k,2.0,��
2017/11/25,21:20,0.898,1.457,0.927,1.743,1.190,0.493,0.887,0.842,�k,0.8,��
2017/11/25,21:30,0.896,1.459,0.925,1.743,1.191,0.493,0.885,0.844,�k�k��,1.4,��
2017/11/25,21:40,0.898,1.458,0.928,1.742,1.189,0.493,0.883,0.841,�k��,0.9,��
2017/11/25,21:50,0.898,1.455,0.924,1.740,1.189,0.491,0.886,0.844,���k��,1.7,��
2017/11/25,22:00,0.898,1.458,0.926,1.744,1.190,0.492,0.885,0.843,���k��,1.2,��
2017/11/25,22:10,0.897,1.460,0.926,1.739,1.188,0.492,0.884,0.843,���k��,1.2,��
2017/11/25,22:20,0.900,1.457,0.925,1.744,1.189,0.493,0.883,0.843,��,1.5,��
2017/11/25,22:30,0.897,1.459,0.926,1.743,1.190,0.492,0.888,0.842,��,2.0,��
2017/11/25,22:40,0.899,1.456,0.925,1.745,1.189,0.494,0.885,0.843,���쐼,1.5,��
2017/11/25,22:50,0.898,1.456,0.926,1.742,1.189,0.491,0.886,0.842,�쐼,2.2,��
2017/11/25,23:00,0.899,1.458,0.927,1.744,1.190,0.492,0.886,0.844,�쐼,2.5,��
2017/11/25,23:10,0.896,1.457,0.926,1.741,1.189,0.492,0.886,0.844,�쐼,2.5,��
2017/11/25,23:20,0.899,1.457,0.925,1.744,1.188,0.492,0.885,0.843,�쐼,2.6,��
2017/11/25,23:30,0.900,1.457,0.925,1.744,1.190,0.493,0.886,0.843,�쐼,2.6,��
2017/11/25,23:40,0.900,1.457,0.926,1.742,1.188,0.491,0.884,0.843,��쐼,3.2,��
2017/11/25,23:50,0.899,1.457,0.926,1.742,1.189,0.492,0.885,0.844,��쐼,4.0,��
